#timestamp,LO_Frequency,Hit,StdDev 
1611342015.8,286046973.5,N
1611342035.6,286046972.0,N
1611342055.5,286046972.0,N
1611342075.3,286046971.4,N
1611342095.1,286046973.1,N
1611342115.9,286046977.9,N
1611342135.7,286046978.3,N
1611342155.6,286046979.1,N
1611342175.4,286046979.5,N
1611342195.2,286046979.4,N
1611342215.1,286046980.2,N
1611342216.0,286046980.2,N
1611342235.8,286046976.1,N
1611342255.7,286046970.9,N
1611342275.5,286046969.8,N
1611342295.3,286046967.9,N
1611342315.2,286046967.7,N
1611342335.9,286046971.4,N
1611342355.7,286046971.8,N
1611342375.6,286046968.0,Y
1611342395.4,286046982.5,P
1611342415.3,286046982.9,P
1611342435.1,286046980.0,P
1611342436.0,286046980.0,Y
1611342455.8,286046999.3,P
1611342475.7,286046997.1,N
1611342495.5,286046993.4,N
1611342515.3,286046994.7,N
1611342535.2,286046992.0,N
1611342555.0,286046992.2,N
1611342555.9,286046992.2,N
1611342575.8,286046994.8,N
1611342595.6,286046990.9,N
1611342615.4,286046997.6,N
1611342635.3,286047000.9,N
1611342655.1,286047000.2,N
1611342675.8,286046997.1,N
1611342695.7,286047000.0,N
1611342715.5,286047004.4,N
1611342735.4,286047001.6,N
1611342755.2,286047002.5,N
1611342775.0,286046998.8,N
1611342775.9,286046998.8,N
1611342795.8,286047001.1,N
1611342815.6,286047001.6,N
1611342835.4,286046999.2,N
1611342855.3,286046997.5,N
1611342875.1,286046995.7,N
1611342895.9,286046993.6,N
1611342915.7,286046997.1,N
1611342935.5,286046997.2,N
1611342955.4,286046997.5,N
1611342975.2,286046993.9,N
1611342995.1,286046992.2,N
1611342996.0,286046992.2,N
1611343015.8,286046993.5,N
1611343035.6,286046993.6,N
1611343055.5,286046996.1,N
1611343075.3,286046990.4,N
1611343095.2,286046990.1,N
1611343115.9,286046995.4,N
1611343135.7,286046997.9,N
1611343155.6,286046998.8,N
1611343175.4,286046999.2,N
1611343195.2,286046995.8,N
1611343215.1,286046994.0,N
1611343216.0,286046994.0,N
1611343235.8,286046993.6,N
1611343255.7,286046996.3,N
1611343275.5,286046998.0,N
1611343295.3,286046995.2,N
1611343315.2,286046993.4,N
1611343335.0,286046996.6,N
1611343335.9,286046996.6,N
1611343355.7,286046999.8,N
1611343375.6,286047001.0,N
1611343395.4,286047000.6,N
1611343415.3,286046997.0,N
1611343435.1,286046996.9,N
1611343436.0,286046996.9,N
1611343455.8,286046999.4,N
1611343475.7,286046998.6,N
1611343495.5,286046999.9,N
1611343515.3,286046998.1,N
1611343535.2,286046998.8,N
1611343555.0,286046997.6,N
1611343555.9,286046997.6,N
1611343575.8,286047002.7,N
1611343595.6,286047003.1,N
1611343615.4,286047003.1,N
1611343635.3,286047005.6,N
1611343655.1,286047002.8,N
1611343675.9,286047001.7,N
1611343695.7,286047002.6,N
1611343715.5,286047003.3,N
1611343735.4,286047004.9,N
1611343755.2,286047006.0,N
1611343775.0,286047005.0,N
1611343775.9,286047005.0,N
1611343795.8,286047007.8,N
1611343815.6,286047012.2,Y
1611343835.5,286047017.2,P
1611343855.3,286047018.7,N
1611343875.1,286047015.8,N
1611343895.9,286047021.6,N
1611343915.7,286047021.5,N
1611343935.6,286047020.4,N
1611343955.4,286047017.3,N
1611343975.2,286047019.1,N
1611343995.1,286047014.1,N
1611343996.0,286047014.1,N
1611344015.8,286047016.9,Y
1611344035.7,286046998.7,P
1611344055.5,286046998.8,N
1611344075.3,286046995.9,N
1611344095.2,286046998.0,N
1611344115.0,286046992.4,N
1611344115.9,286046992.4,N
1611344135.7,286046985.6,N
1611344155.6,286046983.7,N
1611344175.4,286046987.0,N
1611344195.3,286046992.9,N
1611344215.1,286046987.1,N
1611344216.0,286046987.1,N
1611344235.8,286046985.7,N
1611344255.7,286046987.9,N
1611344275.5,286046985.3,N
1611344295.4,286046986.3,N
1611344315.2,286046979.4,N
1611344335.0,286046983.6,N
1611344335.9,286046983.6,N
1611344355.8,286046981.6,N
1611344375.6,286046977.5,N
1611344395.4,286046975.4,N
1611344415.3,286046976.3,N
1611344435.1,286046980.3,N
1611344455.9,286046981.8,N
1611344475.7,286046977.7,N
1611344495.5,286046978.0,N
1611344515.4,286046980.8,N
1611344535.2,286046980.4,N
1611344555.0,286046976.1,N
1611344555.9,286046976.1,Y
1611344575.8,286046987.6,P
1611344595.6,286046986.9,P
1611344615.5,286046985.8,P
1611344635.3,286046987.5,Y
1611344655.1,286046996.5,P
1611344675.9,286047004.0,N
1611344695.7,286047001.8,N
1611344715.5,286047003.3,N
1611344735.4,286047002.4,N
1611344755.2,286047002.4,N
1611344775.1,286046998.1,N
1611344776.0,286046998.1,N
1611344795.8,286046998.5,N
1611344815.6,286046999.4,N
1611344835.5,286046998.6,N
1611344855.3,286047001.2,N
1611344875.1,286047000.6,N
1611344895.9,286047004.2,N
1611344915.7,286046999.4,N
1611344935.6,286046999.8,N
1611344955.4,286047003.9,N
1611344975.2,286047003.7,N
1611344995.1,286047007.1,N
1611344996.0,286047007.1,N
1611345015.8,286047008.9,N
1611345035.7,286047007.9,N
1611345055.5,286047009.9,N
1611345075.3,286047011.2,N
1611345095.2,286047013.7,N
1611345115.0,286047016.5,Y
1611345115.9,286047016.5,P
1611345135.8,286047012.5,N
1611345155.6,286047016.8,N
1611345175.4,286047012.9,N
1611345195.3,286047015.1,N
1611345215.1,286047014.5,Y
1611345235.9,286047006.0,P
1611345255.7,286047003.9,N
1611345275.5,286047006.3,N
1611345295.4,286047010.7,Y
1611345315.2,286047001.0,P
1611345335.0,286047000.0,N
1611345335.9,286047000.0,N
1611345355.8,286047002.8,N
1611345375.6,286047005.5,N
1611345395.5,286047003.7,N
1611345415.3,286047002.8,N
1611345435.1,286046998.1,N
1611345455.9,286046998.1,N
1611345475.7,286046998.9,N
1611345495.6,286047002.7,N
1611345515.4,286047005.7,N
1611345535.2,286047002.0,N
1611345555.1,286047001.5,N
1611345556.0,286047001.5,N
1611345575.8,286047006.6,N
1611345595.6,286047011.7,Y
